Weather History for Khudzhand, Russia

Change the Weather History Date:

Saturday, June 22, 2013

  Actual Average Record
Temperature  
Mean Temperature 88 °F -  
Max Temperature 105 °F - - ()
Min Temperature 71 °F - - ()
Cooling Degree Days 23    
Growing Degree Days 38 (Base 50)    
Moisture  
Dew Point 43 °F    
Average Humidity 23    
Maximum Humidity 39    
Minimum Humidity 7    
Precipitation  
Precipitation 0.00 in - - ()
Sea Level Pressure  
Sea Level Pressure 29.69 in    
Wind  
Wind Speed 7 mph ()    
Max Wind Speed 13 mph    
Max Gust Speed 22 mph    
Visibility 6.2 miles    
Events      
T = Trace of Precipitation, MM = Missing Value Source: Averaged Metar Reports

Daily Weather History Graph

Daily Weather History Graph

Search for Another Location

Airport:

Trip Planner

Search our weather history database for the weather conditions in past years. The results will help you decide how hot, cold, wet, or windy it might be!

Date:

Astronomy

Jun. 22, 2013 Rise Set
Actual Time 5:52 AM YEKT 8:54 PM YEKT
Civil Twilight 5:18 AM YEKT 9:27 PM YEKT
Nautical Twilight 4:36 AM YEKT 10:09 PM YEKT
Astronomical Twilight 3:47 AM YEKT 10:58 PM YEKT
Moon 7:41 PM YEKT (6/22) 4:38 AM YEKT (6/22)
Length of Visible Light 16h 08m
Length of Day
15h 02m
Waxing Gibbous, 98% of the Moon is Illuminated
Jun 22
Waxing Gibbous
Jun 23
Full
Jun 30
Last Quarter
Jul 8
New
Jul 16
First Quarter

Hourly Weather History & Observations

Time (YEKT) Temp. Dew Point Humidity Pressure Visibility Wind Dir Wind Speed Gust Speed Precip Events Conditions
12:00 AM 78.8 °F 44.6 °F 30% 29.68 in 6.2 mi WSW 6.7 mph - N/A   Clear
12:30 AM 78.8 °F 44.6 °F 30% 29.68 in 6.2 mi WSW 6.7 mph - N/A   Clear
1:00 AM 80.6 °F 42.8 °F 26% 29.68 in 6.2 mi West 6.7 mph - N/A   Clear
1:30 AM 77.0 °F 44.6 °F 32% 29.68 in 6.2 mi West 6.7 mph - N/A   Clear
2:00 AM 77.0 °F 42.8 °F 29% 29.68 in 6.2 mi West 6.7 mph - N/A   Clear
2:30 AM 75.2 °F 44.6 °F 34% 29.68 in 6.2 mi WSW 6.7 mph - N/A   Clear
3:00 AM 73.4 °F 42.8 °F 33% 29.68 in 6.2 mi WSW 6.7 mph - N/A   Clear
3:30 AM 73.4 °F 42.8 °F 33% 29.65 in 6.2 mi West 6.7 mph - N/A   Clear
4:00 AM 78.8 °F 42.8 °F 28% 29.68 in 6.2 mi Variable 4.5 mph - N/A   Clear
4:30 AM 71.6 °F 42.8 °F 35% 29.68 in 6.2 mi WSW 4.5 mph - N/A   Clear
5:00 AM 71.6 °F 44.6 °F 38% 29.68 in 6.2 mi Variable 4.5 mph - N/A   Clear
5:30 AM 71.6 °F 41.0 °F 33% 29.68 in 6.2 mi WSW 6.7 mph - N/A   Clear
6:00 AM 71.6 °F 41.0 °F 33% 29.68 in 6.2 mi WSW 6.7 mph - N/A   Clear
6:30 AM 73.4 °F 41.0 °F 31% 29.68 in 6.2 mi WSW 6.7 mph - N/A   Clear
7:00 AM 77.0 °F 41.0 °F 28% 29.68 in 6.2 mi SW 6.7 mph - N/A   Clear
7:30 AM 77.0 °F 46.4 °F 34% 29.71 in 6.2 mi Variable 4.5 mph - N/A   Clear
8:00 AM 78.8 °F 51.8 °F 39% 29.71 in 6.2 mi Variable 4.5 mph - N/A   Clear
8:30 AM 82.4 °F 46.4 °F 28% 29.71 in 6.2 mi Variable 4.5 mph - N/A   Clear
9:00 AM 86.0 °F 48.2 °F 27% 29.71 in 6.2 mi East 8.9 mph - N/A   Clear
9:30 AM 86.0 °F 48.2 °F 27% 29.71 in 6.2 mi East 8.9 mph - N/A   Clear
10:00 AM 87.8 °F 48.2 °F 25% 29.71 in 6.2 mi East 11.2 mph - N/A   Clear
10:30 AM 89.6 °F 46.4 °F 22% 29.71 in 6.2 mi East 13.4 mph - N/A   Clear
11:00 AM 91.4 °F 44.6 °F 20% 29.71 in 6.2 mi ENE 13.4 mph - N/A   Clear
11:30 AM 91.4 °F 42.8 °F 18% 29.71 in 6.2 mi ENE 11.2 mph - N/A   Clear
12:00 PM 93.2 °F 41.0 °F 16% 29.71 in 6.2 mi East 11.2 mph - N/A   Clear
12:30 PM 95.0 °F 42.8 °F 16% 29.71 in 6.2 mi ENE 8.9 mph - N/A   Clear
1:00 PM 96.8 °F 44.6 °F 17% 29.68 in 6.2 mi East 8.9 mph - N/A   Partly Cloudy
1:30 PM 98.6 °F 39.2 °F 13% 29.68 in 6.2 mi ESE 4.5 mph 11.2 mph N/A   Partly Cloudy
2:00 PM 98.6 °F 41.0 °F 14% 29.68 in 6.2 mi ESE 4.5 mph - N/A   Partly Cloudy
2:30 PM 100.4 °F 39.2 °F 12% 29.68 in 6.2 mi Variable 4.5 mph - N/A   Partly Cloudy
3:00 PM 102.2 °F 37.4 °F 11% 29.68 in 6.2 mi SSW 6.7 mph - N/A   Partly Cloudy
3:30 PM 104.0 °F 37.4 °F 10% 29.68 in 6.2 mi WSW 11.2 mph - N/A   Partly Cloudy
4:00 PM 105.8 °F 32.0 °F 8% 29.68 in 6.2 mi SW 11.2 mph 17.9 mph N/A   Partly Cloudy
4:30 PM 105.8 °F 35.6 °F 9% 29.68 in 6.2 mi SW 13.4 mph - N/A   Partly Cloudy
5:00 PM 104.0 °F 28.4 °F 7% 29.68 in 6.2 mi WNW 11.2 mph 20.1 mph N/A   Partly Cloudy
5:30 PM 104.0 °F 32.0 °F 8% 29.68 in 6.2 mi West 13.4 mph - N/A   Partly Cloudy
6:00 PM 102.2 °F 33.8 °F 9% 29.68 in 6.2 mi WSW 13.4 mph 22.4 mph N/A   Scattered Clouds
6:30 PM 102.2 °F 37.4 °F 11% 29.68 in 6.2 mi WSW 11.2 mph 17.9 mph N/A   Scattered Clouds
7:00 PM 102.2 °F 35.6 °F 10% 29.68 in 6.2 mi West 8.9 mph - N/A   Scattered Clouds
7:30 PM 100.4 °F 37.4 °F 11% 29.68 in 6.2 mi West 8.9 mph - N/A   Scattered Clouds
8:00 PM 98.6 °F 42.8 °F 15% 29.68 in 6.2 mi West 6.7 mph - N/A   Mostly Cloudy
8:30 PM 93.2 °F 50.0 °F 23% 29.71 in 6.2 mi WSW 4.5 mph - N/A   Mostly Cloudy
9:00 PM 87.8 °F 51.8 °F 29% 29.71 in 6.2 mi SW 6.7 mph - N/A   Mostly Cloudy
9:30 PM 86.0 °F 50.0 °F 29% 29.71 in 6.2 mi SSW 6.7 mph - N/A   Mostly Cloudy
10:00 PM 82.4 °F 50.0 °F 32% 29.71 in 6.2 mi WSW 4.5 mph - N/A   Partly Cloudy
10:30 PM 82.4 °F 50.0 °F 32% 29.71 in 6.2 mi WSW 6.7 mph - N/A   Partly Cloudy
11:00 PM 80.6 °F 48.2 °F 32% 29.71 in 6.2 mi WSW 6.7 mph - N/A   Partly Cloudy
11:30 PM 80.6 °F 46.4 °F 30% 29.71 in 6.2 mi WSW 6.7 mph - N/A   Partly Cloudy